Regional Weather Roundup
Issued by NWS Little Rock, AR

Home | Current Version | Previous Version | Graphics & Text | Print | Product List | Glossary On
Versions: 1 2 3 4 5 6 7 8 9 10 11 12 13 14 15 16 17 18 19 20 21 22 23 24 25 26 27 28 29 30 31 32 33 34 35 36 37 38 39 40 41 42 43 44 45 46 47
000
ASUS44 KLZK 011705
RWRLZK

WEATHER ROUNDUP FOR ARKANSAS
NATIONAL WEATHER SERVICE LITTLE ROCK AR
1200 PM CDT TUE SEP 01 2015

NOTE: "FAIR" INDICATES FEW OR NO CLOUDS BELOW 12,000 FEET WITH NO
SIGNIFICANT WEATHER AND/OR OBSTRUCTIONS TO VISIBILITY.

ARZ001-003-010-029-011800-
NORTHWEST ARKANSAS

CITY           SKY/WX    TMP DP  RH WIND       PRES   REMARKS
FAYETTEVILLE   SUNNY     83  69  62 S8        30.12S HX  86
FORT SMITH     SUNNY     86  69  56 VRB3      30.08F HX  90
BENTONVILLE    SUNNY     84  64  51 S9        30.13S HX  86
ROGERS         SUNNY     84  67  56 S9        30.13S HX  86
SILOAM SPGS    SUNNY     84  64  51 S14       30.10S HX  86
HIGHFILL       SUNNY     84  69  60 S10       30.11F HX  88
$$

ARZ004-005-016-011800-
NORTH CENTRAL ARKANSAS

CITY           SKY/WX    TMP DP  RH WIND       PRES   REMARKS
BATESVILLE     PTSUNNY   84  72  65 SE3       30.11S HX  89
FLIPPIN        SUNNY     88  68  51 SE5       30.09F HX  91
MTN HOME       SUNNY     85  70  60 S5        30.11S HX  89
$$

ARZ040-041-011800-
WEST CENTRAL ARKANSAS

CITY           SKY/WX    TMP DP  RH WIND       PRES   REMARKS
MENA           MOSUNNY   88  64  45 E6        30.11F HX  89
MOUNT IDA      MOSUNNY   88  66  48 SE6       30.09F HX  90
$$

ARZ009-017-025-026-028-011800-
NORTHEAST ARKANSAS

CITY           SKY/WX    TMP DP  RH WIND       PRES   REMARKS
JONESBORO      SUNNY     86  70  58 E8        30.11S HX  90
NEWPORT        MOSUNNY   89  73  59 SE5       30.12R HX  96
WALNUT RIDGE   MOSUNNY   86  70  58 SE5       30.11S HX  90
BLYTHEVILLE    SUNNY     87  70  56 S7        30.12S HX  92
$$

ARZ022-023-033-042-044-011800-
CENTRAL ARKANSAS

CITY           SKY/WX    TMP DP  RH WIND       PRES   REMARKS
LITTLE ROCK    CLOUDY    86  71  60 SE6       30.10S HX  91
N LITTLE ROCK  CLOUDY    84  73  70 SE3       30.10S HX  90
JACKSONVILLE   PTSUNNY   86  70  58 S1        30.10S HX  91
SEARCY         PTSUNNY   87  72  60 E5        30.12R HX  93
HOT SPRINGS    MOSUNNY   86  65  49 CALM      30.11S HX  88
RUSSELLVILLE   SUNNY     87  70  56 S5        30.09S HX  92
$$

ARZ036-011800-
EAST ARKANSAS

CITY           SKY/WX    TMP DP  RH WIND       PRES   REMARKS
WEST MEMPHIS   MOSUNNY   86  70  58 S6        30.10S HX  90
$$

ARZ050-053-066-070-073-011800-
SOUTHWEST ARKANSAS

CITY           SKY/WX    TMP DP  RH WIND       PRES   REMARKS
ARKADELPHIA    FAIR      82  72  72 CALM      30.10F HX  86
CAMDEN         CLOUDY    84  68  58 NW3       30.09F HX  87
TEXARKANA      PTSUNNY   84  69  60 VRB3      30.09F HX  88
EL DORADO      CLOUDY    84  68  58 NE3       30.10F HX  87
DE QUEEN       MOSUNNY   87  69  54 VRB3      30.06F HX  91
$$

ARZ056-057-069-011800-
SOUTHEAST ARKANSAS

CITY           SKY/WX    TMP DP  RH WIND       PRES   REMARKS
PINE BLUFF     CLOUDY    86  69  56 CALM      30.10F HX  90
STUTTGART      CLOUDY    90  70  51 S6        30.10F HX  95
MONTICELLO     PTSUNNY   90  66  45 CALM      30.09F HX  92

$$





USA.gov is the U.S. government's official web portal to all federal, state and local government web resources and services.